TimeCDT,TemperatureF,Dew PointF,Humidity,Sea Level PressureIn,VisibilityMPH,Wind Direction,Wind SpeedMPH,Gust SpeedMPH,PrecipitationIn,Events,Conditions,WindDirDegrees,DateUTC
12:52 AM,50.0,41.0,71,30.17,10.0,NE,18.4,-,N/A,,Clear,50,2012-10-06 05:52:00
1:52 AM,50.0,41.0,71,30.19,10.0,NNE,12.7,-,N/A,,Overcast,30,2012-10-06 06:52:00
2:52 AM,50.0,39.9,68,30.19,10.0,NNE,15.0,-,N/A,,Overcast,30,2012-10-06 07:52:00
3:52 AM,48.9,37.0,64,30.20,10.0,NE,19.6,26.5,N/A,,Overcast,40,2012-10-06 08:52:00
4:52 AM,48.9,36.0,61,30.19,10.0,NE,17.3,23.0,N/A,,Overcast,40,2012-10-06 09:52:00
5:52 AM,48.9,35.1,59,30.20,10.0,NE,19.6,-,N/A,,Overcast,40,2012-10-06 10:52:00
6:52 AM,48.0,35.1,61,30.21,10.0,NE,18.4,-,N/A,,Overcast,40,2012-10-06 11:52:00
7:52 AM,48.0,35.1,61,30.22,10.0,NE,16.1,-,N/A,,Overcast,40,2012-10-06 12:52:00
8:52 AM,48.9,34.0,56,30.23,10.0,NE,17.3,24.2,N/A,,Overcast,40,2012-10-06 13:52:00
9:52 AM,48.9,34.0,56,30.24,10.0,NNE,17.3,-,N/A,,Overcast,30,2012-10-06 14:52:00
10:52 AM,48.9,35.1,59,30.24,10.0,NNE,13.8,-,N/A,,Overcast,30,2012-10-06 15:52:00
11:52 AM,48.9,35.1,59,30.23,10.0,NE,16.1,-,N/A,,Overcast,40,2012-10-06 16:52:00
12:52 PM,50.0,35.1,57,30.23,10.0,NE,16.1,-,N/A,,Overcast,40,2012-10-06 17:52:00
1:52 PM,48.9,36.0,61,30.22,10.0,NE,12.7,-,N/A,,Overcast,50,2012-10-06 18:52:00
2:52 PM,48.0,37.0,66,30.21,10.0,NE,12.7,-,N/A,,Overcast,40,2012-10-06 19:52:00
3:52 PM,48.9,30.9,50,30.22,10.0,NE,13.8,23.0,N/A,,Overcast,40,2012-10-06 20:52:00
4:52 PM,50.0,30.9,48,30.20,10.0,NE,16.1,-,N/A,,Overcast,40,2012-10-06 21:52:00
5:52 PM,48.9,32.0,52,30.22,10.0,NE,20.7,-,N/A,,Overcast,40,2012-10-06 22:52:00
6:52 PM,48.9,33.1,54,30.23,10.0,NE,15.0,-,N/A,,Overcast,40,2012-10-06 23:52:00
7:52 PM,48.9,30.9,50,30.26,10.0,NE,13.8,-,N/A,,Overcast,40,2012-10-07 00:52:00
8:52 PM,48.9,30.9,50,30.28,10.0,NNE,12.7,-,N/A,,Overcast,30,2012-10-07 01:52:00
9:52 PM,48.0,32.0,54,30.30,10.0,NE,13.8,-,N/A,,Overcast,40,2012-10-07 02:52:00
10:52 PM,48.0,32.0,54,30.32,10.0,NE,15.0,-,N/A,,Overcast,40,2012-10-07 03:52:00
11:52 PM,48.0,33.1,56,30.31,10.0,NE,9.2,-,N/A,,Overcast,40,2012-10-07 04:52:00